Data for 08/16/2018

Time Sea-Level Adjusted Pressure Absolute Pressure Temperature Relative Humidity Dew Point   
(mb) (inHg) (mb) (inHg) (C) (F) (%) (C) (F)
00:05 1021 30.15 850 25.1 17.9 64.2 23 -3.3 26
00:10 1021 30.15 850 25.1 17.7 63.9 24 -3.2 26.3
00:15 1021 30.15 850 25.1 17.6 63.6 24 -3.3 26
00:20 1021 30.15 850 25.1 17.7 63.9 23 -3.3 26
00:25 1021 30.15 850 25.1 17.6 63.6 24 -3.3 26.1
00:30 1021 30.15 850 25.1 17.3 63.2 24 -3.1 26.4
00:35 1021 30.15 850 25.1 17.3 63.2 24 -3.3 26.1
00:40 1021 30.15 850 25.1 17.5 63.6 23 -3.6 25.5
00:45 1021 30.15 850 25.1 17.9 64.3 23 -3.2 26.3
00:50 1021 30.15 850 25.1 18 64.3 23 -3.3 26.1
00:55 1021 30.15 850 25.1 17.9 64.1 24 -3 26.6
01:00 1021 30.15 850 25.1 17.8 64.1 23 -3.5 25.7
01:05 1021 30.15 850 25.1 17.6 63.6 25 -2.5 27.4
01:10 1021 30.15 850 25.1 17.1 62.8 23 -3.8 25.1
01:15 1021 30.15 850 25.1 17.5 63.6 25 -2.5 27.5
01:20 1021 30.15 851 25.13 17.1 62.7 25 -3.2 26.3
01:25 1021 30.15 851 25.13 16.9 62.4 27 -2.3 27.8
01:30 1021 30.15 851 25.13 16.3 61.3 28 -2.1 28.1
01:35 1021 30.15 851 25.13 16.1 60.9 29 -1.8 28.8
01:40 1021 30.15 851 25.13 15.5 60 30 -2 28.4
01:45 1021 30.15 851 25.13 15.4 59.8 29 -2.2 28
01:50 1021 30.15 851 25.13 15.5 59.8 30 -1.8 28.7
01:55 1021 30.15 851 25.13 15.2 59.4 30 -2 28.4
02:00 1022 30.18 851 25.13 15.3 59.5 28 -3 26.6
02:05 1021 30.15 851 25.13 16.3 61.3 27 -2.8 27
02:10 1022 30.18 851 25.13 16 60.7 28 -2.3 27.9
02:15 1022 30.18 851 25.13 15.7 60.2 28 -2.6 27.3
02:20 1021 30.15 851 25.13 15.8 60.4 28 -2.4 27.6
02:25 1021 30.15 851 25.13 15.8 60.5 27 -2.8 26.9
02:30 1021 30.15 851 25.13 16 60.8 28 -2.6 27.3
02:35 1022 30.18 851 25.13 15.8 60.5 28 -2.8 27
02:40 1022 30.18 851 25.13 15.8 60.4 27 -3 26.5
02:45 1022 30.18 851 25.13 16 60.8 26 -3.2 26.2
02:50 1022 30.18 851 25.13 16.5 61.7 26 -3 26.6
02:55 1022 30.18 851 25.13 16.3 61.3 28 -2.4 27.7
03:00 1022 30.18 851 25.13 15.8 60.4 28 -2.4 27.7
03:05 1022 30.18 851 25.13 15.5 59.8 28 -2.8 27
03:10 1022 30.18 851 25.13 15.4 59.8 29 -2.5 27.5
03:15 1022 30.18 851 25.13 15.1 59.2 30 -2.1 28.3
03:20 1022 30.18 851 25.13 15 58.9 30 -2.4 27.6
03:25 1022 30.18 851 25.13 15.1 59.1 29 -2.6 27.4
03:30 1022 30.18 851 25.13 14.9 58.9 30 -2.6 27.4
03:35 1022 30.18 851 25.13 14.8 58.7 30 -2.4 27.7
03:40 1022 30.18 851 25.13 14.6 58.3 30 -2.6 27.3
03:45 1022 30.18 851 25.13 14.8 58.6 29 -2.8 26.9
03:50 1022 30.18 851 25.13 15 59 29 -2.8 27
03:55 1022 30.18 851 25.13 15 59 29 -2.9 26.8
04:00 1022 30.18 851 25.13 15.3 59.5 28 -3 26.6
04:05 1022 30.18 851 25.13 15.4 59.7 28 -2.7 27.1
04:10 1022 30.18 851 25.13 15.2 59.3 29 -2.8 27
04:15 1022 30.18 851 25.13 15.2 59.3 29 -2.6 27.4
04:20 1022 30.18 851 25.13 14.9 58.8 30 -2.4 27.8
04:25 1022 30.18 851 25.13 14.6 58.4 31 -2.4 27.6
04:30 1022 30.18 851 25.13 14.4 57.9 31 -2.3 27.8
04:35 1022 30.18 851 25.13 14.2 57.6 31 -2.5 27.5
04:40 1022 30.18 851 25.13 14.4 57.8 30 -2.9 26.8
04:45 1022 30.18 851 25.13 14.6 58.3 30 -2.7 27.2
04:50 1022 30.18 851 25.13 14.6 58.3 30 -2.6 27.2
04:55 1022 30.18 851 25.13 14.6 58.2 30 -2.6 27.3
05:00 1022 30.18 851 25.13 14.5 58 31 -2.4 27.7
05:05 1022 30.18 851 25.13 14.4 57.8 31 -2.5 27.6
05:10 1022 30.18 852 25.16 14.2 57.6 30 -3.2 26.3
05:15 1022 30.18 852 25.16 14.9 58.9 29 -2.9 26.7
05:20 1022 30.18 852 25.16 15.1 59.2 30 -2.5 27.5
05:25 1022 30.18 852 25.16 15 58.9 29 -2.7 27.1
05:30 1022 30.18 852 25.16 14.7 58.4 31 -2.4 27.7
05:35 1023 30.21 852 25.16 14.5 58.1 28 -3.5 25.7
05:40 1023 30.21 852 25.16 15.1 59.2 28 -3.1 26.5
05:45 1023 30.21 852 25.16 15.1 59.2 29 -2.6 27.3
05:50 1023 30.21 852 25.16 14.8 58.6 31 -2.2 28.1
05:55 1023 30.21 852 25.16 14.3 57.8 30 -3 26.6
06:00 1023 30.21 852 25.16 14.7 58.4 29 -3.1 26.4
06:05 1023 30.21 852 25.16 14.7 58.4 30 -2.5 27.6
06:10 1023 30.21 852 25.16 14.1 57.5 32 -2.1 28.1
06:15 1023 30.21 852 25.16 13.6 56.4 34 -1.7 28.9
06:20 1023 30.21 852 25.16 12.8 55.1 38 -1 30.1
06:25 1023 30.21 852 25.16 12.6 54.7 35 -2.5 27.5
06:30 1023 30.21 852 25.16 13.4 56.1 33 -2.5 27.4
06:35 1023 30.21 852 25.16 13.5 56.2 33 -2.3 27.8
06:40 1023 30.21 852 25.16 13.8 56.9 31 -2.9 26.8
06:45 1023 30.21 852 25.16 14.3 57.8 30 -3.2 26.3
06:50 1023 30.21 852 25.16 15 59 28 -3.1 26.4
06:55 1023 30.21 852 25.16 15.1 59.1 29 -2.9 26.8
07:00 1023 30.21 852 25.16 14.3 57.7 34 -1.4 29.4
07:05 1023 30.21 852 25.16 13.4 56.1 34 -2.2 28
07:10 1023 30.21 852 25.16 13.2 55.7 36 -1.3 29.6
07:15 1023 30.21 852 25.16 13.4 56.1 34 -2.1 28.2
07:20 1023 30.21 852 25.16 13.8 56.9 32 -2.3 27.8
07:25 1023 30.21 852 25.16 14.3 57.7 30 -2.8 26.9
07:30 1023 30.21 852 25.16 14.5 58.2 30 -2.6 27.4
07:35 1023 30.21 853 25.19 14.8 58.6 30 -2.5 27.5
07:40 1023 30.21 853 25.19 15.3 59.5 33 -0.7 30.7
07:45 1023 30.21 853 25.19 15.5 60 33 -0.5 31.1
07:50 1023 30.21 853 25.19 15.7 60.3 32 -0.7 30.7
07:55 1023 30.21 853 25.19 15.7 60.3 32 -0.9 30.4
08:00 1023 30.21 853 25.19 15.7 60.2 32 -0.7 30.8
08:05 1023 30.21 853 25.19 15.7 60.3 32 -0.9 30.4
08:10 1024 30.24 853 25.19 15.8 60.4 32 -0.6 30.9
08:15 1024 30.24 853 25.19 15.9 60.7 32 -0.8 30.5
08:20 1024 30.24 853 25.19 16.3 61.3 33 0 32
08:25 1024 30.24 853 25.19 16.6 61.8 34 0.6 33.1
08:30 1024 30.24 853 25.19 16.4 61.6 33 0.3 32.6
08:35 1024 30.24 853 25.19 16.4 61.5 30 -1.1 30.1
08:40 1024 30.24 853 25.19 16.7 62.1 31 -0.4 31.3
08:45 1024 30.24 853 25.19 17.2 63 32 0.6 33.1
08:50 1024 30.24 853 25.19 17.7 63.9 31 0.6 33.1
08:55 1024 30.24 853 25.19 18.2 64.8 31 1.1 34
09:00 1024 30.24 853 25.19 18.7 65.7 29 0.5 32.8
09:05 1024 30.24 853 25.19 19.2 66.6 30 1.2 34.2
09:10 1024 30.24 853 25.19 19.6 67.2 28 0.6 33.1
09:15 1024 30.24 853 25.19 19.9 67.8 28 1.2 34.2
09:20 1024 30.24 853 25.19 19.6 67.2 29 1 33.8
09:25 1024 30.24 853 25.19 20 68 27 0.6 33.2
09:30 1024 30.24 853 25.19 20.7 69.3 26 0.7 33.3
09:35 1024 30.24 853 25.19 21.5 70.6 26 1.2 34.1
09:40 1024 30.24 853 25.19 21.9 71.3 27 2 35.6
09:45 1024 30.24 853 25.19 22.4 72.3 25 1.4 34.6
09:50 1024 30.24 853 25.19 22.5 72.4 26 2.4 36.3
09:55 1024 30.24 853 25.19 21.4 70.6 25 1 33.8
10:00 1024 30.24 853 25.19 21.7 71 25 0.8 33.5
10:05 1024 30.24 853 25.19 21.4 70.5 26 1.1 33.9
10:10 1024 30.24 853 25.19 21.6 70.8 26 1.4 34.5
10:15 1024 30.24 853 25.19 22.3 72.2 26 2.2 35.9
10:20 1024 30.24 853 25.19 22 71.6 26 1.6 34.9
10:25 1024 30.24 853 25.19 21.7 71.1 25 1.1 33.9
10:30 1024 30.24 853 25.19 21.9 71.4 22 -0.5 31.1
10:35 1024 30.24 853 25.19 22.4 72.3 23 0.2 32.4
10:40 1024 30.24 853 25.19 22.8 73 22 0.1 32.2
10:45 1024 30.24 853 25.19 23.4 74.1 22 0.8 33.4
10:50 1024 30.24 853 25.19 23.7 74.7 21 0.2 32.3
10:55 1024 30.24 853 25.19 24.1 75.3 21 0.6 33.1
11:00 1024 30.24 853 25.19 24.6 76.3 20 0.3 32.6
11:05 1024 30.24 853 25.19 24.7 76.4 20 0.3 32.5
11:10 1024 30.24 853 25.19 25.1 77.2 19 0.2 32.3
11:15 1024 30.24 853 25.19 24.4 75.9 21 0.7 33.3
11:20 1024 30.24 853 25.19 24 75.2 19 -0.7 30.8
11:25 1024 30.24 853 25.19 24.5 76.2 18 -0.9 30.4
11:30 1024 30.24 853 25.19 25.4 77.8 19 0.1 32.1
11:35 1024 30.24 853 25.19 25.7 78.3 17 -0.7 30.8
11:40 1024 30.24 853 25.19 25.6 78.1 19 0.6 33
11:45 1024 30.24 853 25.19 25 76.9 19 -0.1 31.8
11:50 1024 30.24 853 25.19 25.4 77.7 19 0.6 33.1
11:55 1024 30.24 853 25.19 25.3 77.5 20 1 33.9
12:00 1024 30.24 853 25.19 24.7 76.4 19 -0.3 31.5
12:05 1024 30.24 853 25.19 24.9 76.8 20 0.5 32.9
12:10 1024 30.24 853 25.19 25.4 77.8 20 1.3 34.4
12:15 1024 30.24 853 25.19 26 78.8 18 -0.1 31.8
12:20 1024 30.24 853 25.19 26.9 80.4 17 0.3 32.6
12:25 1024 30.24 853 25.19 27.5 81.5 17 0.4 32.8
12:30 1023 30.21 853 25.19 27.8 82 17 0.8 33.4
12:35 1023 30.21 853 25.19 27.5 81.4 16 -0.2 31.7
12:40 1023 30.21 853 25.19 27.8 82.1 15 -1.1 30
12:45 1023 30.21 853 25.19 27.7 81.9 15 -0.9 30.4
12:50 1023 30.21 852 25.16 27.6 81.6 15 -1.1 30
12:55 1023 30.21 852 25.16 28 82.4 16 -0.2 31.6
13:00 1023 30.21 852 25.16 28.5 83.3 14 -1.5 29.3
13:05 1023 30.21 852 25.16 28.7 83.7 14 -0.8 30.5
13:10 1023 30.21 852 25.16 28.4 83.1 13 -1.9 28.6
13:15 1023 30.21 852 25.16 27.2 81 15 -1.4 29.5
13:20 1023 30.21 852 25.16 27.3 81.2 15 -1.7 28.9
13:25 1023 30.21 852 25.16 27.7 81.9 15 -0.9 30.5
13:30 1023 30.21 852 25.16 27.8 82 15 -1.3 29.6
13:35 1023 30.21 852 25.16 27.5 81.4 15 -1.6 29.2
13:40 1023 30.21 852 25.16 27.9 82.2 15 -1 30.3
13:45 1023 30.21 852 25.16 28.3 82.9 15 -0.8 30.5
13:50 1023 30.21 852 25.16 29 84.1 13 -1.5 29.3
13:55 1023 30.21 852 25.16 28.9 84 15 -0 32
14:00 1023 30.21 852 25.16 27.9 82.2 16 0.1 32.2
14:05 1023 30.21 852 25.16 28.8 83.9 17 1.9 35.5
14:10 1023 30.21 852 25.16 29.9 85.8 15 0.6 33.1
14:15 1023 30.21 852 25.16 30.1 86.1 14 0.4 32.8
14:20 1023 30.21 852 25.16 30.7 87.3 15 1 33.8
14:25 1023 30.21 852 25.16 30.6 87.1 13 -0.7 30.7
14:30 1023 30.21 852 25.16 30.9 87.7 13 0.2 32.3
14:35 1023 30.21 852 25.16 31.1 88 12 -1.7 29
14:40 1023 30.21 852 25.16 30.5 86.8 13 -0.9 30.4
14:45 1023 30.21 852 25.16 30 86 13 -1.3 29.6
14:50 1023 30.21 852 25.16 30.6 87.1 11 -2.9 26.7
14:55 1022 30.18 852 25.16 30.8 87.5 11 -2.9 26.8
15:00 1022 30.18 852 25.16 31 87.9 11 -2.9 26.8
15:05 1022 30.18 852 25.16 31 87.8 11 -3.1 26.5
15:10 1022 30.18 852 25.16 30.9 87.6 10 -3.9 25
15:15 1022 30.18 852 25.16 30.8 87.4 9 -4.7 23.5
15:20 1022 30.18 852 25.16 30.3 86.6 11 -3.4 25.9
15:25 1022 30.18 851 25.13 31 87.7 9 -5.4 22.2
15:30 1022 30.18 851 25.13 30.8 87.4 10 -4.5 23.8
15:35 1022 30.18 851 25.13 30.2 86.4 9 -5.4 22.2
15:40 1022 30.18 851 25.13 30.5 86.8 10 -3.7 25.4
15:45 1022 30.18 851 25.13 30.7 87.3 10 -3.4 25.8
15:50 1022 30.18 851 25.13 30.9 87.6 11 -3.1 26.4
15:55 1022 30.18 851 25.13 30.4 86.6 11 -2.8 26.9
16:00 1022 30.18 851 25.13 30.2 86.3 12 -2.5 27.5
16:05 1022 30.18 851 25.13 29.7 85.5 11 -3.6 25.5
16:10 1022 30.18 851 25.13 30 86.1 12 -2.5 27.4
16:15 1022 30.18 851 25.13 30.2 86.3 12 -1.8 28.7
16:20 1022 30.18 851 25.13 30.6 87.1 12 -1.8 28.7
16:25 1022 30.18 851 25.13 30.4 86.8 13 -0.5 31.2
16:30 1022 30.18 851 25.13 30.3 86.5 10 -3.8 25.1
16:35 1022 30.18 851 25.13 30 85.9 12 -2.4 27.7
16:40 1022 30.18 851 25.13 30.6 87.1 12 -1.5 29.3
16:45 1022 30.18 851 25.13 30.9 87.6 11 -2.8 26.9
16:50 1022 30.18 851 25.13 31.3 88.3 10 -3.6 25.5
16:55 1022 30.18 851 25.13 30.8 87.5 11 -2.2 28.1
17:00 1022 30.18 851 25.13 31.1 87.9 10 -3.2 26.2
17:05 1022 30.18 851 25.13 31.1 88 10 -4.2 24.5
17:10 1022 30.18 851 25.13 30.7 87.2 9 -5.7 21.7
17:15 1022 30.18 851 25.13 30.1 86.2 10 -4.7 23.5
17:20 1022 30.18 851 25.13 30.5 87 10 -4.5 23.8
17:25 1022 30.18 851 25.13 30.5 86.9 9 -6.1 21.1
17:30 1022 30.18 851 25.13 30.7 87.3 8 -6.8 19.8
17:35 1022 30.18 851 25.13 30.7 87.3 8 -6.4 20.5
17:40 1022 30.18 851 25.13 30.7 87.3 8 -6.8 19.8
17:45 1022 30.18 851 25.13 30.5 86.9 9 -5.8 21.6
17:50 1022 30.18 851 25.13 30.4 86.8 9 -6.1 21
17:55 1022 30.18 851 25.13 30.2 86.3 9 -5.7 21.7
18:00 1022 30.18 851 25.13 30 85.9 10 -5.3 22.4
18:05 1022 30.18 851 25.13 29.4 84.9 11 -3.9 25
18:10 1022 30.18 851 25.13 28.8 83.8 11 -4.2 24.5
18:15 1022 30.18 851 25.13 28.7 83.7 13 -1.8 28.8
18:20 1022 30.18 851 25.13 28.5 83.4 14 -1.5 29.3
18:25 1022 30.18 851 25.13 28.3 82.9 15 -0.3 31.5
18:30 1022 30.18 851 25.13 28.1 82.7 18 1.6 34.9
18:35 1022 30.18 851 25.13 27.8 82.1 17 0.8 33.4
18:40 1022 30.18 851 25.13 27.7 81.8 17 0.5 32.9
18:45 1022 30.18 851 25.13 27.7 81.9 17 0.5 32.9
18:50 1022 30.18 851 25.13 27.7 81.9 17 0.4 32.6
18:55 1022 30.18 851 25.13 27.8 82 18 1.5 34.8
19:00 1022 30.18 851 25.13 27.8 82.1 17 1.2 34.2
19:05 1022 30.18 851 25.13 27.8 82.1 17 0.8 33.4
19:10 1022 30.18 851 25.13 27.8 82 17 0.7 33.3
19:15 1022 30.18 851 25.13 27.7 81.8 17 0.6 33.2
19:20 1022 30.18 851 25.13 27.5 81.4 18 1.2 34.2
19:25 1022 30.18 851 25.13 27.2 81 18 1.4 34.6
19:30 1022 30.18 851 25.13 27 80.6 18 1 33.7
19:35 1022 30.18 851 25.13 26.5 79.8 21 2.7 36.9
19:40 1022 30.18 851 25.13 25.9 78.6 27 5.5 41.9
19:45 1022 30.18 851 25.13 25.2 77.3 31 7.1 44.8
19:50 1022 30.18 851 25.13 24.7 76.4 32 6.9 44.5
19:55 1022 30.18 851 25.13 24.7 76.4 30 6 42.8
20:00 1022 30.18 851 25.13 24.6 76.3 28 5.3 41.5
20:05 1022 30.18 851 25.13 24.6 76.3 26 4.1 39.4
20:10 1022 30.18 851 25.13 24.7 76.4 27 4.5 40.2
20:15 1022 30.18 851 25.13 24.5 76.2 27 4.4 40
20:20 1022 30.18 851 25.13 24.1 75.5 27 4.1 39.4
20:25 1022 30.18 851 25.13 23.8 74.8 30 5.3 41.6
20:30 1022 30.18 851 25.13 23.4 74 27 3.6 38.5
20:35 1022 30.18 851 25.13 23.3 74 29 4.7 40.4
20:40 1022 30.18 851 25.13 23.5 74.3 26 3.1 37.6
20:45 1022 30.18 851 25.13 23.7 74.7 25 2.9 37.2
20:50 1022 30.18 851 25.13 23.7 74.7 27 3.7 38.7
20:55 1022 30.18 852 25.16 23.7 74.7 19 -0.7 30.7
21:00 1022 30.18 852 25.16 24 75.2 20 -0.1 31.8
21:05 1022 30.18 852 25.16 23.6 74.5 21 0.1 32.2
21:10 1022 30.18 852 25.16 23.5 74.3 21 -0.2 31.7
21:15 1023 30.21 852 25.16 23.6 74.4 21 0.3 32.6
21:20 1023 30.21 852 25.16 23.7 74.6 22 1.1 33.9
21:25 1023 30.21 852 25.16 23.8 74.9 16 -3.7 25.4
21:30 1023 30.21 852 25.16 24.3 75.7 18 -1.4 29.4
21:35 1023 30.21 852 25.16 23.8 74.8 19 -0.7 30.7
21:40 1022 30.18 852 25.16 23.6 74.5 19 -1.1 30.1
21:45 1023 30.21 852 25.16 23.6 74.5 18 -1.8 28.8
21:50 1023 30.21 852 25.16 23.9 74.9 17 -2.1 28.2
21:55 1023 30.21 852 25.16 23.8 74.9 19 -1 30.3
22:00 1023 30.21 852 25.16 23.5 74.2 20 -0.5 31
22:05 1023 30.21 852 25.16 23.2 73.8 18 -2.1 28.2
22:10 1023 30.21 852 25.16 23.2 73.7 18 -2.5 27.5
22:15 1023 30.21 852 25.16 23 73.4 18 -2.7 27.2
22:20 1023 30.21 852 25.16 23.1 73.5 17 -2.8 27
22:25 1023 30.21 852 25.16 23.1 73.5 18 -2.6 27.3
22:30 1023 30.21 852 25.16 23.2 73.7 18 -2.3 27.9
22:35 1023 30.21 852 25.16 23.2 73.7 18 -2.1 28.3
22:40 1023 30.21 852 25.16 23.1 73.5 16 -4.3 24.3
22:45 1023 30.21 852 25.16 24.1 75.4 15 -3.6 25.5
22:50 1023 30.21 852 25.16 23.6 74.4 17 -2.5 27.4
22:55 1023 30.21 852 25.16 23.3 74 17 -2.5 27.5
23:00 1023 30.21 852 25.16 23.2 73.8 17 -3.2 26.3
23:05 1023 30.21 852 25.16 23.6 74.4 17 -2.4 27.8
23:10 1022 30.18 852 25.16 23.7 74.6 16 -3.3 26.1
23:15 1022 30.18 852 25.16 23.8 74.8 18 -1.5 29.2
23:20 1022 30.18 852 25.16 23.4 74.2 19 -1.4 29.6
23:25 1022 30.18 852 25.16 22.9 73.2 19 -1.5 29.3
23:30 1022 30.18 852 25.16 22.7 72.8 18 -2.3 27.9
23:35 1023 30.21 852 25.16 22.6 72.7 20 -1.4 29.5
23:40 1023 30.21 852 25.16 22.7 72.9 15 -4.6 23.6
23:45 1023 30.21 852 25.16 23.5 74.3 17 -3.1 26.4
23:50 1023 30.21 852 25.16 23.4 74.1 18 -2.1 28.3
23:55 1023 30.21 852 25.16 23.4 74.2 17 -3 26.5
24:00 1023 30.21 852 25.16 23.3 74 18 -1.9 28.7